[[{"header":{"parameterUnit":"m.s-1","parameterCategory":1,"la1":30.2991,"la2":30.254,"lo1":-89.0895,"lo2":-89.0444,"dy":0.0017,"dx":0.0017,"nx":28,"ny":28,"refTime":"2025-11-10T03:00:00:Z","depth":0,"parameterNumber":2,"parameterNumberName":"U-component_of_WINDS"},"data":[0,0,0,0,0,0,0,0,0,0,0,0,0,0,0,0,0,0,0,0,0,0,0,0,0,0,0,0,0,0,0,0,0,0,0,0,0,0,0,0,0,0,0,0,0,0,0,0,0,0,0,0,0,0,0,0,0,0,2.3708,2.3708,0,2.3733,2.3733,2.3733,2.3703,2.3701,2.37,2.3699,2.3723,2.3725,2.3726,0,0,0,0,0,0,0,0,0,0,0,0,0,2.3631,2.3633,2.3708,2.3708,2.3709,2.3732,2.3733,2.3733,2.3703,2.3701,2.37,2.3699,2.3722,2.3724,2.3726,0,0,0,0,0,0,0,0,0,0,0,0,0,2.3661,2.3634,2.3708,2.3696,2.3696,2.3732,2.3733,2.3733,2.3703,2.3701,2.37,2.3698,2.3722,2.3724,2.3727,2.3776,0,0,2.3734,2.3735,0,0,0,0,0,0,0,0,2.366,2.3664,2.3698,2.3697,2.3696,2.3713,2.3714,2.3747,2.3703,2.37,2.3699,2.3697,2.3721,2.3723,2.3732,2.3777,2.3778,2.3735,2.3736,2.3737,2.3738,0,0,0,0,0,0,0,2.3658,2.3663,2.3718,2.3698,2.3697,2.3689,2.3691,2.3721,2.372,2.37,2.3698,2.3702,2.372,2.3729,2.3732,2.3778,2.3734,2.3737,2.3738,2.3739,2.386,2.3862,0,0,0,0,0,0,2.3657,2.3661,2.3717,2.3718,2.3674,2.3692,2.3694,2.3709,2.3719,2.3719,2.3703,2.37,2.3726,2.3729,2.3733,2.3787,2.3737,2.3739,2.3741,2.3859,2.3861,2.3863,0,0,0,0,0,0,2.3656,2.3662,2.3716,2.3689,2.3695,2.3695,2.3712,2.3711,2.372,2.3721,2.3721,2.3713,2.3725,2.3729,2.3764,2.3788,2.3741,2.3743,2.3857,2.3859,2.3862,2.3899,0,0,0,0,0,0,2.3654,2.3662,2.3682,2.369,2.3697,2.3748,2.3713,2.3712,2.3724,2.3721,2.373,2.373,2.3724,2.3761,2.3767,2.379,2.3745,2.3854,2.3858,2.3861,2.3895,2.3902,2.3908,0,0,0,0,0,2.3651,2.3692,2.3683,2.369,2.3721,2.375,2.3754,2.3746,2.3726,2.3745,2.3745,2.373,2.3785,2.3765,2.3771,2.3796,2.3853,2.3857,2.3861,2.3893,2.3901,2.3908,0,0,0,0,0,0,2.3686,2.3693,2.3683,2.3728,2.3738,2.3745,2.3768,2.3756,2.3772,2.3768,2.3757,2.3759,2.3796,2.38,2.3777,2.3842,2.3815,2.3821,2.3837,2.3845,2.3852,2.3849,2.3747,0,0,0,0,0,2.37,2.3723,2.3727,2.3766,2.3772,2.3769,2.3781,2.3774,2.3784,2.3789,2.3792,2.3802,2.3821,2.3834,2.3852,2.3897,2.3896,2.3917,2.3923,2.3928,2.3932,2.3952,2.396,2.3875,2.3875,2.3875,0,0,2.3727,2.3733,2.3748,2.3773,2.378,2.3803,2.3773,2.3799,2.3815,2.3793,2.3825,2.3828,2.3838,2.3877,2.3895,2.3881,2.3956,2.3933,2.3937,2.3938,2.3957,2.3965,2.3972,2.3878,2.3877,2.3877,0,0,2.3787,2.3796,2.3827,2.3835,2.3846,2.3843,2.3851,2.3859,2.3859,2.3892,2.3874,2.3893,2.3928,2.3934,2.3943,2.4003,2.3988,2.4009,2.4042,2.4061,2.4068,2.4074,2.4092,2.4099,2.4014,2.4014,2.4014,0,2.3819,2.3853,2.3845,2.3871,2.3881,2.3862,2.3892,2.39,2.3916,2.3923,2.3908,2.3949,2.3955,2.3993,2.4008,2.4016,2.4022,2.4007,2.4068,2.4074,2.4079,2.4096,2.4103,2.4016,2.4016,2.4016,2.4015,0,2.3889,2.3913,2.3937,2.3952,2.3966,2.3994,2.3989,2.4003,2.3994,2.3993,2.4024,2.4031,2.4048,2.4058,2.405,2.4094,2.4085,2.407,2.4042,2.4089,2.4105,2.4112,2.4019,2.4019,2.4018,2.4017,0,0,2.3972,2.3981,2.399,2.3995,2.4005,2.4023,2.4049,2.4066,2.4076,2.4089,2.4108,2.4137,2.4122,2.4131,2.4124,2.4142,2.4185,2.4124,2.4124,2.4132,2.423,2.4239,2.4247,2.4176,2.4177,2.4178,2.4227,0,2.4029,2.4075,2.4067,2.4111,2.413,2.4111,2.4134,2.4142,2.4141,2.4157,2.4156,2.4175,2.4155,2.416,2.4177,2.4176,2.4204,2.4173,2.4192,2.4193,2.4186,2.4256,2.4266,2.4312,2.4234,2.4235,2.4236,0,2.4102,2.4115,2.416,2.4164,2.4172,2.4192,2.4205,2.4222,2.4229,2.4227,2.4236,2.4226,2.425,2.4224,2.4256,2.4235,2.4243,2.4243,2.4245,2.4244,2.4215,2.4253,2.4327,2.4333,2.4246,2.4245,2.4245,0,2.4153,2.4182,2.4212,2.4217,2.4224,2.4238,2.4241,2.4247,2.4257,2.4268,2.4274,2.4289,2.4296,2.4307,2.4299,2.4282,2.4331,2.4306,2.4328,2.4328,2.4337,2.4336,2.441,2.4347,2.4347,2.4347,2.4347,0,2.4216,2.4243,2.4234,2.4252,2.4281,2.4272,2.4301,2.4302,2.4307,2.4324,2.431,2.4325,2.4316,2.4331,2.4326,2.4351,2.4355,2.4353,2.435,2.4352,2.4352,2.4355,2.435,2.4349,2.4348,2.4348,2.4348,0,2.4277,2.4272,2.4303,2.4306,2.4307,2.4328,2.433,2.4345,2.4343,2.4364,2.4369,2.4365,2.4381,2.4376,2.4394,2.439,2.4421,2.4416,2.4418,2.4416,2.4437,2.4433,2.4512,2.4521,2.4456,2.4457,2.4457,0,2.4315,2.4335,2.434,2.435,2.4353,2.437,2.4379,2.4371,2.438,2.4389,2.4403,2.4418,2.4429,2.4456,2.4454,2.4467,2.4461,2.4488,2.4462,2.4463,2.4457,2.4454,2.4455,2.4492,2.4492,2.4493,2.4493,0,2.4383,2.4379,2.4393,2.4405,2.4416,2.4425,2.4433,2.4442,2.4434,2.4445,2.4461,2.447,2.4487,2.4501,2.4512,2.4515,2.4502,2.4502,2.4507,2.4507,2.4506,2.4503,2.4428,2.4499,2.4499,2.4498,2.4498,2.4498,2.4431,2.4447,2.4452,2.4466,2.4471,2.4478,2.4492,2.4491,2.4505,2.4517,2.4512,2.4529,2.4534,2.4548,2.4552,2.4565,2.4554,2.4562,2.4564,2.4565,2.4566,2.4506,2.4567,2.4567,2.4567,2.4567,2.4567,0,2.4495,2.4497,2.4511,2.4521,2.4532,2.452,2.4528,2.4537,2.4553,2.4559,2.4569,2.4586,2.4599,2.4599,2.461,2.462,2.4615,2.4624,2.4621,2.4621,2.4577,2.457,2.4628,2.4628,2.4628,2.4628,2.4628,2.4628,2.4529,2.4554,2.455,2.4576,2.4578,2.4594,2.4599,2.4605,2.4609,2.4628,2.4639,2.4638,2.4641,2.4652,2.4663,2.4662,2.4666,2.4676,2.4673,2.4631,2.4625,2.4619,2.4612,2.4678,2.4678,2.4716,2.4716,2.4716]},{"header":{"parameterUnit":"m.s-1","parameterCategory":1,"la1":30.2991,"la2":30.254,"lo1":-89.0895,"lo2":-89.0444,"dy":0.0017,"dx":0.0017,"nx":28,"ny":28,"refTime":"2025-11-10T03:00:00:Z","depth":0,"parameterNumber":3,"parameterNumberName":"V-component_of_WINDS"},"data":[0,0,0,0,0,0,0,0,0,0,0,0,0,0,0,0,0,0,0,0,0,0,0,0,0,0,0,0,0,0,0,0,0,0,0,0,0,0,0,0,0,0,0,0,0,0,0,0,0,0,0,0,0,0,0,0,0,0,6.0294,6.0295,0,6.0386,6.0387,6.0388,6.0322,6.0319,6.0316,6.0313,6.0402,6.0407,6.0412,0,0,0,0,0,0,0,0,0,0,0,0,0,6.0053,6.0058,6.0294,6.0295,6.0296,6.0386,6.0387,6.0388,6.0322,6.0319,6.0315,6.0312,6.04,6.0406,6.0413,0,0,0,0,0,0,0,0,0,0,0,0,0,6.0153,6.006,6.0294,6.0274,6.0273,6.0386,6.0387,6.0389,6.0323,6.0318,6.0314,6.031,6.0398,6.0406,6.0413,6.0548,0,0,6.0437,6.044,0,0,0,0,0,0,0,0,6.0147,6.0161,6.0276,6.0276,6.0275,6.0338,6.0335,6.0442,6.0324,6.0304,6.0313,6.0308,6.0384,6.0393,6.0419,6.0553,6.0556,6.0437,6.0442,6.0445,6.0448,0,0,0,0,0,0,0,6.014,6.0157,6.033,6.0278,6.0277,6.0258,6.0267,6.0355,6.0367,6.0305,6.0301,6.0313,6.0383,6.0412,6.0421,6.0558,6.0437,6.0444,6.0449,6.0452,6.08,6.0805,0,0,0,0,0,0,6.0136,6.0152,6.0327,6.0333,6.0199,6.0266,6.0276,6.0322,6.0366,6.0369,6.0316,6.0309,6.0401,6.0412,6.0424,6.058,6.0445,6.0453,6.0457,6.0796,6.0801,6.0806,0,0,0,0,0,0,6.0131,6.0152,6.0323,6.0241,6.0262,6.0275,6.0327,6.0326,6.0355,6.0375,6.0376,6.0344,6.0398,6.0413,6.0517,6.0583,6.0456,6.0463,6.079,6.0797,6.0804,6.0898,0,0,0,0,0,0,6.0125,6.0151,6.0205,6.0243,6.0266,6.0418,6.0331,6.0331,6.0369,6.0361,6.0401,6.0404,6.0396,6.0506,6.0525,6.0591,6.0469,6.0784,6.0793,6.0802,6.0889,6.0907,6.0923,0,0,0,0,0,6.0116,6.0228,6.0208,6.0229,6.0334,6.0422,6.0435,6.0425,6.0375,6.0427,6.0439,6.0402,6.0573,6.0517,6.0538,6.0607,6.078,6.0791,6.0801,6.0881,6.0903,6.0922,0,0,0,0,0,0,6.0196,6.0232,6.0211,6.0339,6.0378,6.0411,6.0476,6.045,6.0503,6.0493,6.0477,6.0486,6.0594,6.0612,6.0548,6.0737,6.0668,6.0683,6.0722,6.0743,6.076,6.0752,6.0475,0,0,0,0,0,6.0229,6.0299,6.0327,6.0436,6.0457,6.0464,6.0502,6.049,6.053,6.0545,6.0565,6.0603,6.0664,6.0705,6.0763,6.0891,6.0896,6.0949,6.0966,6.098,6.0992,6.1056,6.1078,6.0841,6.0841,6.084,0,0,6.0296,6.0325,6.037,6.0453,6.0482,6.0552,6.0478,6.0557,6.0607,6.0557,6.0655,6.0671,6.0712,6.0827,6.0879,6.0844,6.1059,6.0993,6.1004,6.1009,6.1069,6.1091,6.1111,6.0848,6.0847,6.0845,0,0,6.0455,6.0486,6.0578,6.0608,6.0653,6.0656,6.0678,6.0715,6.0723,6.0822,6.0784,6.0843,6.0952,6.098,6.1009,6.1175,6.1142,6.1194,6.1282,6.1345,6.1363,6.1379,6.1434,6.1455,6.1207,6.1207,6.1208,0,6.0533,6.0639,6.0629,6.0709,6.0744,6.0702,6.0793,6.0823,6.0884,6.0908,6.0869,6.1,6.1025,6.1144,6.1184,6.1211,6.1232,6.1189,6.1362,6.1378,6.1393,6.1445,6.1466,6.1213,6.1213,6.1212,6.1211,0,6.073,6.0804,6.0873,6.0933,6.0976,6.1062,6.1061,6.1105,6.109,6.1096,6.1194,6.1222,6.1283,6.1311,6.1297,6.1427,6.1404,6.1364,6.1294,6.1422,6.147,6.149,6.1222,6.1219,6.1218,6.1216,0,0,6.0942,6.0993,6.1018,6.1043,6.1088,6.1143,6.1225,6.1285,6.1321,6.1364,6.1429,6.152,6.1482,6.1515,6.1504,6.1559,6.1682,6.1511,6.1512,6.1539,6.1822,6.1849,6.1872,6.1662,6.1665,6.1669,6.1817,0,6.11,6.1243,6.1234,6.1368,6.1433,6.1393,6.1463,6.1496,6.1503,6.1558,6.1565,6.1628,6.1576,6.1594,6.1648,6.1656,6.1738,6.1646,6.1718,6.1721,6.1706,6.1898,6.1928,6.2067,6.1836,6.1839,6.1842,0,6.1303,6.1352,6.1492,6.1523,6.155,6.1614,6.1666,6.172,6.1755,6.1756,6.1791,6.1769,6.1848,6.1777,6.1883,6.182,6.1849,6.1857,6.1862,6.1866,6.1787,6.1903,6.2111,6.2131,6.1872,6.187,6.1867,0,6.1438,6.1539,6.1635,6.1658,6.1698,6.1742,6.176,6.1792,6.1827,6.1872,6.1893,6.1947,6.1976,6.2016,6.2008,6.1958,6.2114,6.2044,6.2113,6.2113,6.2146,6.2143,6.2357,6.2171,6.217,6.217,6.2169,0,6.1613,6.1699,6.1695,6.1754,6.1848,6.1835,6.1927,6.194,6.1968,6.2025,6.1994,6.2049,6.2036,6.2089,6.2083,6.2169,6.2183,6.2183,6.2179,6.2184,6.2183,6.22,6.2189,6.2175,6.2174,6.2173,6.2172,0,6.1778,6.178,6.1881,6.191,6.1918,6.1986,6.2009,6.2062,6.2066,6.2139,6.2156,6.2161,6.2222,6.2218,6.2287,6.2282,6.2386,6.2374,6.2374,6.237,6.2438,6.243,6.2668,6.2697,6.2495,6.2497,6.2499,0,6.1888,6.1953,6.1988,6.2025,6.2046,6.2106,6.2141,6.213,6.2168,6.2211,6.2258,6.2316,6.2361,6.2459,6.2468,6.2519,6.2504,6.2584,6.2512,6.2512,6.2501,6.2495,6.25,6.2597,6.26,6.2602,6.2603,0,6.2082,6.2078,6.2131,6.2184,6.2227,6.2267,6.2304,6.2336,6.2328,6.2371,6.2432,6.2468,6.2536,6.2593,6.2641,6.2656,6.2627,6.2626,6.2644,6.2647,6.2643,6.2642,6.2409,6.262,6.2618,6.2617,6.2616,6.2616,6.222,6.2274,6.2306,6.2364,6.2391,6.2425,6.2475,6.2485,6.2537,6.2592,6.2582,6.265,6.2679,6.2741,6.2761,6.2812,6.2783,6.281,6.2816,6.2822,6.2828,6.2638,6.2821,6.2821,6.282,6.282,6.2819,0,6.2408,6.2426,6.248,6.2532,6.2577,6.2547,6.2585,6.2624,6.2685,6.2715,6.276,6.2828,6.2882,6.2894,6.2944,6.2982,6.297,6.2995,6.2991,6.2994,6.2853,6.2831,6.3004,6.3004,6.3004,6.3004,6.3004,6.3004,6.2511,6.2599,6.2599,6.2698,6.2715,6.2782,6.2805,6.2835,6.2859,6.2937,6.2981,6.2989,6.3011,6.3062,6.3109,6.311,6.3129,6.3159,6.3155,6.3023,6.3004,6.2987,6.2965,6.3164,6.3164,6.3291,6.3292,6.3293]}]]